Precipitable_Water
0.64 0.61 0.55 0.49 0.45 0.41 0.38 0.34 0.29 0.23 0.23 0.25 0.25 0.27 0.26 0.26 0.25 0.26 0.25 0.25 0.25 0.27 0.28 0.28 0.28 0.29 0.29 0.30 0.31 0.32 0.33 0.34 0.36 0.38 0.40 0.42 0.44 0.44
0.63 0.58 0.51 0.45 0.42 0.39 0.35 0.31 0.28 0.24 0.21 0.25 0.24 0.25 0.27 0.26 0.25 0.25 0.23 0.23 0.25 0.26 0.25 0.26 0.26 0.27 0.29 0.31 0.32 0.34 0.35 0.36 0.38 0.39 0.42 0.43 0.44 0.46
0.60 0.54 0.45 0.44 0.40 0.35 0.31 0.28 0.25 0.25 0.22 0.23 0.24 0.26 0.25 0.24 0.24 0.23 0.23 0.26 0.26 0.23 0.24 0.26 0.27 0.29 0.31 0.33 0.34 0.35 0.36 0.38 0.39 0.40 0.41 0.43 0.45 0.45
0.55 0.45 0.43 0.40 0.34 0.31 0.28 0.26 0.27 0.26 0.24 0.21 0.23 0.23 0.22 0.22 0.21 0.24 0.27 0.26 0.22 0.22 0.25 0.26 0.29 0.30 0.32 0.33 0.35 0.36 0.37 0.38 0.38 0.39 0.40 0.40 0.41 0.42
0.47 0.44 0.39 0.34 0.30 0.28 0.28 0.27 0.27 0.25 0.24 0.22 0.20 0.21 0.21 0.22 0.24 0.26 0.22 0.20 0.23 0.24 0.26 0.27 0.29 0.32 0.32 0.34 0.34 0.35 0.35 0.36 0.36 0.38 0.39 0.39 0.40 0.41
0.45 0.38 0.33 0.30 0.29 0.29 0.28 0.26 0.26 0.24 0.24 0.22 0.20 0.20 0.22 0.24 0.25 0.19 0.19 0.23 0.24 0.27 0.28 0.30 0.32 0.30 0.31 0.32 0.33 0.33 0.34 0.35 0.37 0.37 0.38 0.38 0.39 0.38
0.34 0.30 0.30 0.30 0.31 0.30 0.28 0.26 0.25 0.24 0.22 0.21 0.19 0.20 0.22 0.19 0.20 0.23 0.23 0.24 0.26 0.29 0.30 0.28 0.28 0.28 0.29 0.30 0.31 0.32 0.33 0.36 0.38 0.39 0.39 0.39 0.40 0.40
0.27 0.29 0.30 0.30 0.27 0.26 0.26 0.26 0.25 0.23 0.21 0.20 0.22 0.19 0.18 0.23 0.25 0.24 0.24 0.24 0.23 0.32 0.27 0.25 0.28 0.27 0.29 0.30 0.31 0.32 0.33 0.37 0.39 0.40 0.40 0.41 0.42 0.43
0.29 0.29 0.28 0.26 0.24 0.23 0.24 0.24 0.23 0.24 0.24 0.23 0.19 0.21 0.23 0.25 0.26 0.26 0.27 0.27 0.25 0.26 0.26 0.23 0.27 0.26 0.29 0.29 0.30 0.32 0.34 0.38 0.39 0.40 0.41 0.42 0.42 0.43
0.28 0.26 0.24 0.22 0.23 0.23 0.23 0.22 0.23 0.23 0.22 0.22 0.24 0.26 0.27 0.29 0.31 0.30 0.28 0.26 0.26 0.26 0.28 0.22 0.26 0.25 0.27 0.28 0.30 0.31 0.33 0.37 0.38 0.39 0.39 0.40 0.41 0.42
0.24 0.23 0.22 0.22 0.23 0.23 0.23 0.20 0.21 0.20 0.23 0.26 0.28 0.30 0.30 0.29 0.29 0.27 0.25 0.23 0.21 0.23 0.27 0.25 0.25 0.24 0.25 0.25 0.28 0.30 0.32 0.35 0.35 0.37 0.38 0.39 0.40 0.41
0.21 0.21 0.21 0.21 0.22 0.23 0.22 0.21 0.18 0.19 0.24 0.27 0.28 0.27 0.27 0.26 0.28 0.27 0.26 0.23 0.23 0.21 0.26 0.24 0.24 0.25 0.20 0.24 0.26 0.29 0.30 0.32 0.34 0.35 0.36 0.38 0.39 0.40
0.21 0.19 0.20 0.20 0.22 0.22 0.22 0.21 0.20 0.26 0.27 0.26 0.24 0.25 0.25 0.26 0.28 0.29 0.30 0.29 0.26 0.25 0.29 0.29 0.26 0.26 0.25 0.22 0.24 0.27 0.29 0.31 0.32 0.33 0.35 0.37 0.38 0.40
0.18 0.19 0.20 0.21 0.21 0.20 0.20 0.20 0.26 0.27 0.24 0.24 0.23 0.24 0.25 0.27 0.29 0.31 0.31 0.32 0.32 0.31 0.32 0.33 0.27 0.27 0.25 0.23 0.21 0.26 0.28 0.32 0.33 0.33 0.35 0.37 0.38 0.40
0.19 0.20 0.20 0.20 0.18 0.17 0.18 0.25 0.25 0.24 0.24 0.23 0.24 0.26 0.28 0.30 0.31 0.31 0.32 0.32 0.33 0.32 0.32 0.32 0.31 0.29 0.28 0.25 0.23 0.25 0.27 0.31 0.33 0.34 0.34 0.35 0.37 0.41
0.20 0.19 0.18 0.17 0.16 0.17 0.22 0.23 0.24 0.25 0.25 0.25 0.26 0.28 0.30 0.30 0.30 0.31 0.29 0.30 0.28 0.28 0.31 0.32 0.31 0.31 0.27 0.27 0.27 0.26 0.31 0.29 0.32 0.33 0.34 0.38 0.40 0.41
0.20 0.17 0.14 0.14 0.14 0.20 0.22 0.23 0.25 0.26 0.26 0.28 0.28 0.28 0.29 0.29 0.29 0.31 0.30 0.29 0.27 0.26 0.26 0.29 0.31 0.31 0.30 0.29 0.27 0.30 0.30 0.30 0.33 0.35 0.36 0.36 0.39 0.40
0.17 0.13 0.12 0.14 0.18 0.21 0.22 0.23 0.25 0.26 0.28 0.29 0.29 0.29 0.29 0.29 0.28 0.30 0.30 0.28 0.27 0.27 0.26 0.27 0.27 0.27 0.27 0.30 0.34 0.31 0.31 0.32 0.34 0.36 0.36 0.34 0.35 0.40
0.13 0.13 0.13 0.17 0.20 0.22 0.23 0.25 0.25 0.28 0.29 0.29 0.29 0.29 0.29 0.29 0.29 0.28 0.28 0.28 0.27 0.27 0.27 0.28 0.27 0.27 0.25 0.24 0.30 0.36 0.32 0.34 0.35 0.35 0.37 0.36 0.35 0.39
0.13 0.13 0.16 0.19 0.22 0.23 0.25 0.26 0.27 0.28 0.29 0.29 0.29 0.30 0.30 0.29 0.28 0.28 0.28 0.28 0.27 0.27 0.27 0.29 0.30 0.32 0.30 0.28 0.29 0.33 0.39 0.37 0.37 0.36 0.37 0.39 0.41 0.43
0.14 0.16 0.19 0.22 0.24 0.26 0.27 0.28 0.28 0.28 0.29 0.30 0.30 0.30 0.30 0.30 0.29 0.29 0.29 0.29 0.29 0.29 0.28 0.30 0.34 0.38 0.37 0.37 0.33 0.33 0.37 0.41 0.42 0.39 0.40 0.38 0.37 0.40
0.17 0.19 0.22 0.24 0.26 0.27 0.28 0.29 0.29 0.29 0.30 0.30 0.30 0.31 0.31 0.31 0.29 0.29 0.29 0.29 0.31 0.32 0.32 0.35 0.37 0.37 0.36 0.34 0.32 0.33 0.36 0.40 0.42 0.43 0.45 0.44 0.40 0.35
0.19 0.22 0.25 0.27 0.28 0.29 0.29 0.29 0.29 0.30 0.31 0.31 0.31 0.31 0.31 0.30 0.32 0.32 0.33 0.33 0.33 0.33 0.34 0.34 0.36 0.37 0.35 0.35 0.34 0.34 0.36 0.37 0.39 0.40 0.43 0.48 0.49 0.49
Wind_Speed
32 33 34 35 36 37 38 39 41 43 44 41 44 45 49 51 52 55 57 58 59 60 60 62 64 65 65 65 64 64 63 62 61 60 59 59 59 59
33 34 36 37 38 39 40 41 42 44 46 47 48 50 52 53 56 57 58 60 59 61 63 64 64 63 63 62 60 58 55 53 51 50 49 49 48 49
35 37 37 38 39 40 41 42 43 45 48 49 51 53 54 56 56 58 60 59 61 62 63 61 61 59 58 55 52 49 46 44 43 43 43 43 42 43
37 38 39 39 40 41 42 43 44 46 49 52 53 54 55 57 58 59 59 60 62 60 57 57 55 52 49 46 43 41 39 38 38 39 39 39 40 40
38 39 40 41 42 42 43 44 46 49 50 53 55 55 56 57 58 59 59 59 55 54 51 48 46 43 41 39 37 35 36 36 36 36 37 37 38 39
39 40 40 41 42 43 45 47 48 49 51 52 54 56 56 57 56 57 54 50 48 44 43 40 39 38 36 35 34 34 34 34 33 33 33 33 34 35
39 40 40 41 44 45 47 47 49 50 51 53 54 56 55 55 53 50 47 45 40 39 37 36 36 35 33 33 32 32 32 32 32 31 31 31 31 33
39 40 41 43 45 46 47 48 50 51 53 54 55 56 54 51 48 45 42 39 37 35 36 36 35 33 32 31 32 32 33 31 29 29 29 29 29 31
40 41 42 43 45 46 48 49 51 52 54 55 55 52 50 47 45 42 40 38 37 39 37 35 34 33 32 32 33 32 32 30 28 27 27 28 29 30
40 42 43 44 45 47 49 50 51 53 52 51 50 48 44 43 41 40 39 40 38 37 36 36 35 34 33 32 33 32 29 27 27 28 29 31 31 31
40 42 43 45 47 49 50 52 52 51 49 47 44 42 40 39 38 38 37 37 37 36 36 37 35 34 34 32 30 29 29 29 30 29 30 31 32 32
41 42 44 47 48 49 52 52 50 47 43 39 37 36 34 34 35 34 34 34 36 35 34 33 34 33 29 29 28 30 29 29 29 30 30 31 33 33
42 44 45 47 49 51 51 48 45 41 37 34 33 32 32 32 32 33 35 35 35 35 36 34 33 32 30 31 29 30 30 28 28 29 30 31 32 33
44 45 47 49 50 49 45 42 37 34 31 31 30 30 31 33 34 36 36 35 34 36 35 33 32 31 30 31 30 30 29 28 27 28 29 31 33 35
45 47 49 49 47 42 38 34 30 28 28 28 29 31 33 35 37 36 34 33 33 34 33 31 30 30 29 29 29 29 28 27 26 27 29 31 33 32
46 47 47 45 40 35 30 27 26 26 27 29 30 32 35 35 35 33 33 33 32 31 30 30 29 28 27 27 26 26 26 24 26 28 31 32 31 31
48 45 42 37 31 26 24 24 24 26 28 30 31 33 35 34 33 33 33 32 30 30 29 29 28 26 25 25 23 22 22 24 26 29 31 30 30 28
44 40 35 28 23 22 22 23 25 27 29 30 32 34 34 33 32 32 32 30 29 28 28 28 26 24 22 19 19 20 21 23 26 26 27 26 24 24
38 32 24 20 19 20 21 23 25 27 29 30 32 34 32 31 32 32 31 28 26 26 25 25 22 20 20 19 19 19 20 23 25 24 25 23 23 24
29 21 17 17 18 19 21 23 26 27 29 31 33 32 31 30 30 29 28 26 25 24 23 21 19 19 19 19 21 22 22 23 23 24 24 22 23 24
17 14 15 16 17 19 21 23 25 28 30 32 32 30 30 29 28 27 25 25 24 21 20 20 20 21 20 20 20 21 22 23 24 23 23 21 20 21
13 14 14 15 17 19 21 23 25 27 29 31 31 30 29 27 26 25 23 22 21 20 20 20 20 21 20 20 20 21 22 23 23 21 19 17 18 17
12 13 14 16 18 19 21 23 24 26 28 30 31 29 28 26 24 23 22 22 21 19 19 21 22 22 21 19 19 19 22 22 21 20 19 18 18 17
Wind_Direction
298 300 300 301 301 301 301 301 301 302 302 303 303 302 301 300 300 299 299 298 298 297 296 294 293 292 290 289 287 286 284 282 279 277 275 273 272 270
299 300 301 301 302 302 302 302 302 301 301 303 303 303 302 302 302 301 300 300 299 298 297 296 295 293 292 290 289 287 285 282 280 278 276 275 273 271
300 301 301 302 302 302 303 303 302 302 301 303 303 304 304 303 304 303 302 301 300 300 298 297 296 294 293 291 289 287 284 282 280 278 276 275 273 272
301 302 302 303 303 303 304 303 303 303 303 304 305 305 305 305 305 304 304 303 302 301 299 298 297 296 294 292 290 287 284 283 281 279 277 275 274 272
301 302 303 303 303 304 304 304 305 305 305 305 306 306 306 306 306 305 305 305 303 302 301 300 299 297 296 293 290 288 286 285 283 280 279 277 276 276
302 303 303 303 304 304 305 305 305 306 306 306 307 307 307 308 307 307 307 307 306 304 303 302 301 299 297 294 291 290 288 286 284 283 280 278 280 280
303 303 304 305 305 305 306 307 307 307 307 307 308 308 309 309 308 309 308 308 307 306 304 304 302 301 298 295 293 292 290 288 285 283 281 281 283 285
304 304 305 306 306 307 307 307 308 309 309 309 309 309 309 309 309 308 307 307 306 306 305 305 303 299 299 296 294 294 291 289 284 283 282 284 287 289
305 306 306 307 307 308 308 308 309 309 308 309 308 308 308 308 307 306 305 304 304 305 304 304 303 299 299 297 296 295 291 286 282 282 283 286 288 290
307 307 308 308 309 309 309 310 310 310 309 309 308 308 308 308 307 306 305 304 304 303 302 300 302 298 298 297 296 296 290 284 282 282 284 287 289 290
309 310 310 310 310 311 311 312 312 311 311 310 309 309 309 309 309 309 308 308 306 306 304 300 301 299 298 295 294 294 290 285 283 282 284 287 289 291
311 312 312 312 312 312 312 312 312 312 312 312 312 312 312 312 312 311 311 311 309 309 310 305 302 300 298 294 294 295 292 286 283 283 285 287 290 292
312 313 313 313 313 313 313 313 313 313 313 313 314 314 315 315 315 314 312 310 310 308 309 307 305 301 294 295 293 295 295 288 284 284 287 289 291 292
314 314 314 314 314 314 314 314 314 315 315 316 316 317 317 317 316 315 313 311 310 308 310 307 304 302 298 295 294 295 295 291 286 285 288 291 293 293
315 315 315 315 315 315 315 316 317 318 318 319 319 319 319 318 317 316 315 314 313 312 310 310 306 303 299 296 296 295 295 294 289 289 293 295 296 294
316 316 316 316 316 316 317 318 320 321 322 321 320 321 321 321 320 319 318 317 316 316 315 313 311 306 302 299 298 297 297 292 294 295 297 297 296 294
317 317 317 317 318 319 320 322 324 324 324 324 323 324 324 323 322 322 320 319 317 317 317 318 317 312 305 302 301 302 300 299 300 301 301 299 298 296
318 317 317 318 320 322 325 326 327 327 328 327 326 326 326 325 325 324 323 321 320 320 320 320 321 319 316 311 306 306 306 307 308 308 308 304 300 301
318 318 318 321 324 326 328 329 330 331 331 330 329 329 328 327 328 328 327 326 324 325 324 325 325 326 323 319 320 317 312 314 314 312 313 308 304 305
318 319 322 326 328 330 331 332 334 335 335 334 333 333 332 331 331 332 332 332 331 331 332 333 332 331 326 324 322 323 323 321 321 320 317 312 309 309
323 325 328 330 332 334 335 336 337 338 338 338 338 337 336 336 336 337 338 337 338 340 339 339 337 333 330 327 326 326 328 329 326 322 323 321 319 321
330 331 333 334 335 336 338 338 340 341 343 343 343 342 341 341 341 342 344 346 346 345 343 343 343 341 338 335 332 331 334 336 337 336 332 327 329 330
336 337 337 337 338 339 340 341 342 344 347 348 348 347 347 347 348 350 350 348 349 351 352 350 349 348 345 344 342 343 342 342 345 345 344 340 336 337